[[{"header":{"parameterUnit":"m.s-1","parameterCategory":1,"la1":30.2991,"la2":30.254,"lo1":-89.0895,"lo2":-89.0444,"dy":0.0017,"dx":0.0017,"nx":28,"ny":28,"refTime":"2026-02-07T03:00:00:Z","depth":0,"parameterNumber":2,"parameterNumberName":"U-component_of_WINDS"},"data":[0,0,0,0,0,0,0,0,0,0,0,0,0,0,0,0,0,0,0,0,0,0,0,0,0,0,0,0,0,0,0,0,0,0,0,0,0,0,0,0,0,0,0,0,0,0,0,0,0,0,0,0,0,0,0,0,0,0,-4.1952,-4.1952,0,-4.195,-4.1949,-4.1949,-4.1775,-4.177,-4.1766,-4.1761,-4.1761,-4.1765,-4.1769,0,0,0,0,0,0,0,0,0,0,0,0,0,-4.1806,-4.181,-4.1952,-4.1952,-4.1952,-4.195,-4.1949,-4.1949,-4.1776,-4.177,-4.1764,-4.1759,-4.1759,-4.1764,-4.177,0,0,0,0,0,0,0,0,0,0,0,0,0,-4.1844,-4.1811,-4.1952,-4.1865,-4.1857,-4.195,-4.1949,-4.1949,-4.1777,-4.177,-4.1763,-4.1757,-4.1758,-4.1764,-4.177,-4.1947,0,0,-4.179,-4.1793,0,0,0,0,0,0,0,0,-4.1842,-4.1849,-4.1877,-4.1871,-4.1862,-4.1855,-4.1898,-4.1949,-4.1778,-4.1807,-4.1761,-4.1753,-4.1798,-4.1801,-4.1815,-4.1947,-4.1947,-4.179,-4.1794,-4.1797,-4.1799,0,0,0,0,0,0,0,-4.1839,-4.1848,-4.1951,-4.1878,-4.1869,-4.1826,-4.1824,-4.1907,-4.1841,-4.1804,-4.1791,-4.1793,-4.1792,-4.181,-4.1814,-4.1947,-4.179,-4.1796,-4.18,-4.1802,-4.2222,-4.2229,0,0,0,0,0,0,-4.1849,-4.1847,-4.1951,-4.1951,-4.1835,-4.1834,-4.1831,-4.1865,-4.184,-4.1829,-4.1799,-4.1785,-4.1802,-4.1807,-4.1813,-4.2018,-4.1797,-4.1803,-4.1806,-4.2215,-4.2224,-4.2232,0,0,0,0,0,0,-4.1846,-4.1859,-4.1951,-4.1896,-4.1904,-4.1844,-4.1882,-4.1868,-4.1885,-4.1836,-4.1824,-4.1829,-4.1797,-4.1804,-4.1915,-4.2015,-4.1806,-4.1812,-4.2206,-4.2218,-4.2228,-4.2429,0,0,0,0,0,0,-4.1843,-4.186,-4.1926,-4.1898,-4.1908,-4.2053,-4.1889,-4.1873,-4.1896,-4.1878,-4.186,-4.1851,-4.1792,-4.1906,-4.1921,-4.202,-4.1816,-4.2197,-4.2211,-4.2224,-4.2413,-4.2446,-4.2473,0,0,0,0,0,-4.1838,-4.1983,-4.193,-4.1944,-4.1989,-4.2059,-4.2064,-4.1993,-4.1905,-4.1971,-4.194,-4.1851,-4.2002,-4.1919,-4.1934,-4.2037,-4.219,-4.2207,-4.2223,-4.24,-4.2439,-4.2473,0,0,0,0,0,0,-4.2025,-4.1978,-4.1919,-4.2059,-4.2064,-4.2029,-4.211,-4.2037,-4.2068,-4.2049,-4.196,-4.1958,-4.2082,-4.207,-4.1979,-4.2206,-4.2081,-4.2101,-4.221,-4.2247,-4.2276,-4.2277,-4.1822,0,0,0,0,0,-4.2082,-4.2143,-4.2098,-4.2227,-4.2232,-4.2172,-4.2199,-4.2144,-4.2146,-4.2147,-4.2123,-4.2129,-4.2177,-4.2211,-4.2253,-4.2411,-4.2404,-4.2489,-4.2519,-4.2544,-4.2563,-4.2645,-4.2682,-4.2286,-4.2286,-4.2286,0,0,-4.2202,-4.2184,-4.2227,-4.2264,-4.2261,-4.2326,-4.2175,-4.2249,-4.2296,-4.2158,-4.2261,-4.2244,-4.2245,-4.2379,-4.2437,-4.2373,-4.2671,-4.2565,-4.2585,-4.259,-4.2666,-4.2703,-4.2737,-4.2297,-4.2295,-4.2293,0,0,-4.2452,-4.2445,-4.255,-4.2551,-4.2549,-4.2507,-4.2533,-4.2509,-4.2492,-4.2594,-4.2492,-4.2546,-4.2632,-4.2636,-4.2649,-4.2902,-4.2822,-4.2918,-4.3075,-4.3156,-4.3188,-4.3215,-4.3305,-4.3338,-4.2937,-4.2937,-4.2938,0,-4.2602,-4.2694,-4.2614,-4.2696,-4.2715,-4.2592,-4.2699,-4.2703,-4.2716,-4.2732,-4.2659,-4.2763,-4.2755,-4.2889,-4.2951,-4.2966,-4.2992,-4.292,-4.3189,-4.3216,-4.324,-4.3325,-4.3359,-4.2949,-4.2948,-4.2946,-4.2945,0,-4.2877,-4.2943,-4.3029,-4.3043,-4.3072,-4.3166,-4.31,-4.3139,-4.3081,-4.3048,-4.3153,-4.3138,-4.3175,-4.3202,-4.3147,-4.3329,-4.3289,-4.3205,-4.3077,-4.3291,-4.3369,-4.3401,-4.2966,-4.2961,-4.2958,-4.2955,0,0,-4.3246,-4.3214,-4.3247,-4.3252,-4.324,-4.329,-4.3378,-4.3413,-4.3448,-4.3461,-4.3532,-4.3607,-4.3529,-4.3544,-4.3488,-4.356,-4.376,-4.3466,-4.3465,-4.3521,-4.396,-4.4023,-4.4062,-4.3707,-4.3713,-4.3718,-4.3959,0,-4.3488,-4.3636,-4.3567,-4.3724,-4.3783,-4.3668,-4.3745,-4.3746,-4.3718,-4.3764,-4.3732,-4.3787,-4.3679,-4.3688,-4.3753,-4.3722,-4.3847,-4.3704,-4.3773,-4.3777,-4.3777,-4.4103,-4.417,-4.4399,-4.3989,-4.3995,-4.3998,0,-4.3791,-4.3815,-4.3978,-4.3955,-4.3977,-4.4048,-4.4074,-4.412,-4.412,-4.4093,-4.4111,-4.4038,-4.4123,-4.3997,-4.4113,-4.4017,-4.4041,-4.403,-4.4037,-4.4041,-4.3901,-4.4115,-4.447,-4.4505,-4.4046,-4.4042,-4.4038,0,-4.4043,-4.4117,-4.4223,-4.4231,-4.4207,-4.4259,-4.4252,-4.4244,-4.4269,-4.4293,-4.4308,-4.4342,-4.4361,-4.4388,-4.4327,-4.424,-4.4452,-4.4319,-4.4433,-4.4435,-4.4482,-4.448,-4.4846,-4.4499,-4.4498,-4.4498,-4.4497,0,-4.4321,-4.4425,-4.4336,-4.4402,-4.4515,-4.4434,-4.4548,-4.4528,-4.4523,-4.4582,-4.4485,-4.4543,-4.4458,-4.4509,-4.4461,-4.4565,-4.4574,-4.4555,-4.4541,-4.4564,-4.4567,-4.4579,-4.4561,-4.4507,-4.4505,-4.4503,-4.4501,0,-4.4622,-4.4566,-4.4675,-4.4643,-4.4638,-4.4722,-4.4695,-4.4755,-4.4719,-4.4796,-4.4809,-4.4754,-4.4807,-4.4749,-4.4799,-4.4767,-4.4906,-4.4869,-4.4907,-4.4896,-4.5012,-4.5002,-4.5399,-4.5447,-4.5069,-4.5073,-4.5076,0,-4.4803,-4.488,-4.4856,-4.4889,-4.4887,-4.4942,-4.4967,-4.4891,-4.4921,-4.4926,-4.4985,-4.5031,-4.5063,-4.5155,-4.5119,-4.5157,-4.512,-4.5256,-4.5125,-4.5145,-4.5121,-4.5118,-4.5125,-4.5283,-4.5288,-4.5291,-4.5294,0,-4.5129,-4.5098,-4.5138,-4.5169,-4.5202,-4.5223,-4.5236,-4.5269,-4.5189,-4.5229,-4.5282,-4.5308,-4.5358,-4.5405,-4.5432,-4.5424,-4.5347,-4.5336,-4.5364,-4.5388,-4.5406,-4.5398,-4.4979,-4.5327,-4.5324,-4.5321,-4.532,-4.5318,-4.5375,-4.5438,-4.5431,-4.5479,-4.5481,-4.5496,-4.555,-4.5521,-4.5564,-4.5599,-4.5551,-4.5618,-4.5615,-4.5644,-4.5645,-4.5696,-4.5638,-4.5679,-4.5689,-4.5701,-4.5718,-4.5398,-4.5701,-4.57,-4.5699,-4.5698,-4.5697,0,-4.5697,-4.5686,-4.5731,-4.5753,-4.5791,-4.5713,-4.5724,-4.5761,-4.5821,-4.5824,-4.5858,-4.592,-4.5965,-4.5933,-4.597,-4.6018,-4.5983,-4.603,-4.6026,-4.6025,-4.5768,-4.574,-4.6057,-4.6057,-4.6057,-4.6057,-4.6057,-4.6057,-4.5868,-4.5971,-4.5939,-4.6041,-4.603,-4.6094,-4.6107,-4.612,-4.6122,-4.6196,-4.6232,-4.6211,-4.62,-4.6236,-4.6274,-4.6263,-4.6281,-4.6341,-4.6318,-4.6079,-4.6043,-4.601,-4.5982,-4.6346,-4.6346,-4.6571,-4.6573,-4.6575]},{"header":{"parameterUnit":"m.s-1","parameterCategory":1,"la1":30.2991,"la2":30.254,"lo1":-89.0895,"lo2":-89.0444,"dy":0.0017,"dx":0.0017,"nx":28,"ny":28,"refTime":"2026-02-07T03:00:00:Z","depth":0,"parameterNumber":3,"parameterNumberName":"V-component_of_WINDS"},"data":[0,0,0,0,0,0,0,0,0,0,0,0,0,0,0,0,0,0,0,0,0,0,0,0,0,0,0,0,0,0,0,0,0,0,0,0,0,0,0,0,0,0,0,0,0,0,0,0,0,0,0,0,0,0,0,0,0,0,-1.5365,-1.5365,0,-1.5421,-1.5421,-1.5422,-1.5433,-1.5433,-1.5432,-1.5432,-1.5488,-1.549,-1.5491,0,0,0,0,0,0,0,0,0,0,0,0,0,-1.5265,-1.5267,-1.5365,-1.5366,-1.5366,-1.5421,-1.5421,-1.5422,-1.5433,-1.5433,-1.5432,-1.5432,-1.5487,-1.5489,-1.5492,0,0,0,0,0,0,0,0,0,0,0,0,0,-1.5313,-1.5268,-1.5365,-1.5378,-1.538,-1.542,-1.5421,-1.5422,-1.5433,-1.5433,-1.5432,-1.5432,-1.5486,-1.5489,-1.5492,-1.5522,0,0,-1.5501,-1.5502,0,0,0,0,0,0,0,0,-1.5311,-1.5317,-1.5376,-1.5378,-1.538,-1.5419,-1.5407,-1.5456,-1.5434,-1.5413,-1.5432,-1.5431,-1.5465,-1.547,-1.5482,-1.5525,-1.5527,-1.5501,-1.5502,-1.5504,-1.5504,0,0,0,0,0,0,0,-1.5307,-1.5315,-1.5387,-1.5377,-1.5379,-1.5381,-1.5387,-1.5416,-1.5442,-1.5415,-1.5416,-1.5422,-1.5466,-1.5479,-1.5483,-1.5528,-1.5501,-1.5503,-1.5505,-1.5506,-1.5596,-1.5597,0,0,0,0,0,0,-1.5302,-1.5312,-1.5385,-1.5389,-1.5343,-1.5383,-1.539,-1.5407,-1.5442,-1.5447,-1.5423,-1.5423,-1.5474,-1.548,-1.5485,-1.5522,-1.5504,-1.5506,-1.5508,-1.5596,-1.5596,-1.5597,0,0,0,0,0,0,-1.53,-1.5308,-1.5383,-1.5351,-1.536,-1.5386,-1.5405,-1.5409,-1.5421,-1.5448,-1.5452,-1.5431,-1.5474,-1.5481,-1.5512,-1.5524,-1.5508,-1.551,-1.5595,-1.5596,-1.5597,-1.5595,0,0,0,0,0,0,-1.5297,-1.5308,-1.532,-1.5351,-1.5362,-1.541,-1.5406,-1.541,-1.5426,-1.5427,-1.5457,-1.5461,-1.5474,-1.5508,-1.5515,-1.5527,-1.5512,-1.5594,-1.5595,-1.5596,-1.5594,-1.5596,-1.5597,0,0,0,0,0,-1.5293,-1.5317,-1.5321,-1.5329,-1.5378,-1.5411,-1.5417,-1.5432,-1.5427,-1.5439,-1.5456,-1.546,-1.5521,-1.5511,-1.5519,-1.5532,-1.5593,-1.5595,-1.5596,-1.5594,-1.5596,-1.5597,0,0,0,0,0,0,-1.5287,-1.5322,-1.5326,-1.5361,-1.5383,-1.5413,-1.5429,-1.5434,-1.5457,-1.5457,-1.5474,-1.548,-1.551,-1.5524,-1.5513,-1.5562,-1.5557,-1.556,-1.5552,-1.5554,-1.5556,-1.5551,-1.5515,0,0,0,0,0,-1.529,-1.5314,-1.5343,-1.5371,-1.5382,-1.5403,-1.5418,-1.5427,-1.5451,-1.546,-1.5479,-1.5501,-1.5525,-1.554,-1.5564,-1.5596,-1.5602,-1.5609,-1.5611,-1.5612,-1.5614,-1.5631,-1.5634,-1.5602,-1.5602,-1.5602,0,0,-1.5296,-1.5318,-1.5332,-1.537,-1.5388,-1.5412,-1.5411,-1.5437,-1.5454,-1.5464,-1.5494,-1.5509,-1.5534,-1.5566,-1.5581,-1.5579,-1.5624,-1.5614,-1.5615,-1.5617,-1.5633,-1.5636,-1.5638,-1.5603,-1.5603,-1.5603,0,0,-1.5318,-1.5338,-1.5363,-1.5381,-1.5408,-1.5422,-1.5428,-1.5457,-1.5467,-1.5498,-1.5505,-1.5526,-1.5567,-1.5585,-1.5599,-1.5626,-1.563,-1.5633,-1.5641,-1.5657,-1.566,-1.5662,-1.5671,-1.5674,-1.5636,-1.5636,-1.5636,0,-1.5322,-1.5359,-1.5375,-1.54,-1.5416,-1.5425,-1.545,-1.5466,-1.55,-1.551,-1.5507,-1.5558,-1.5576,-1.5611,-1.5618,-1.563,-1.5636,-1.563,-1.5658,-1.5661,-1.5663,-1.5671,-1.5675,-1.5636,-1.5636,-1.5636,-1.5636,0,-1.5361,-1.5387,-1.5403,-1.5435,-1.5453,-1.5478,-1.5496,-1.5512,-1.5519,-1.5533,-1.5563,-1.5585,-1.5613,-1.5622,-1.5629,-1.5657,-1.5655,-1.5655,-1.565,-1.5666,-1.5674,-1.5677,-1.5636,-1.5636,-1.5636,-1.5636,0,0,-1.5383,-1.5422,-1.5428,-1.5442,-1.5472,-1.5492,-1.5516,-1.5543,-1.5555,-1.5578,-1.5598,-1.5632,-1.5632,-1.5648,-1.5657,-1.5671,-1.569,-1.567,-1.5671,-1.5672,-1.572,-1.572,-1.5723,-1.5693,-1.5694,-1.5694,-1.5718,0,-1.5408,-1.5453,-1.5467,-1.5503,-1.5526,-1.5535,-1.5555,-1.5576,-1.5589,-1.5609,-1.5623,-1.5647,-1.5645,-1.5655,-1.5669,-1.5685,-1.57,-1.5683,-1.5711,-1.5712,-1.5704,-1.5728,-1.5727,-1.5749,-1.5721,-1.5722,-1.5722,0,-1.5445,-1.5467,-1.5506,-1.5532,-1.5542,-1.5561,-1.5586,-1.5605,-1.5628,-1.5636,-1.5653,-1.5661,-1.5686,-1.5679,-1.5712,-1.5701,-1.5712,-1.5721,-1.5723,-1.5725,-1.5718,-1.573,-1.5756,-1.5759,-1.5728,-1.5727,-1.5727,0,-1.5455,-1.5495,-1.5523,-1.5535,-1.5566,-1.5579,-1.5592,-1.5614,-1.5629,-1.565,-1.566,-1.5684,-1.5697,-1.5715,-1.5729,-1.5723,-1.576,-1.5755,-1.5767,-1.5766,-1.5774,-1.5773,-1.5801,-1.5783,-1.5783,-1.5783,-1.5783,0,-1.5481,-1.5504,-1.5528,-1.5545,-1.557,-1.5586,-1.561,-1.5624,-1.5643,-1.5662,-1.5671,-1.5689,-1.5706,-1.5726,-1.5737,-1.5762,-1.5768,-1.5775,-1.5777,-1.5773,-1.5772,-1.5781,-1.578,-1.5784,-1.5783,-1.5783,-1.5783,0,-1.5497,-1.5514,-1.5545,-1.5571,-1.5579,-1.5596,-1.5619,-1.5635,-1.5648,-1.5672,-1.5678,-1.5698,-1.5722,-1.5737,-1.5767,-1.5775,-1.5801,-1.5804,-1.5794,-1.5795,-1.5805,-1.5804,-1.584,-1.5845,-1.5823,-1.5823,-1.5824,0,-1.5513,-1.5531,-1.5559,-1.5573,-1.5586,-1.5608,-1.5623,-1.5638,-1.5653,-1.5679,-1.5692,-1.5716,-1.5736,-1.5773,-1.5789,-1.5812,-1.5815,-1.5826,-1.5818,-1.5813,-1.5814,-1.5812,-1.5813,-1.5827,-1.5827,-1.5827,-1.5827,0,-1.5539,-1.5546,-1.5567,-1.5591,-1.5609,-1.5628,-1.5648,-1.5658,-1.5676,-1.5692,-1.5716,-1.5732,-1.5762,-1.5785,-1.5809,-1.5822,-1.5827,-1.5829,-1.5833,-1.5829,-1.5822,-1.5825,-1.5796,-1.5828,-1.5828,-1.5828,-1.5828,-1.5828,-1.5554,-1.557,-1.5592,-1.5615,-1.5631,-1.5649,-1.5665,-1.568,-1.57,-1.5726,-1.5734,-1.5758,-1.5779,-1.5811,-1.5824,-1.5843,-1.5842,-1.5848,-1.5849,-1.585,-1.5849,-1.5819,-1.5848,-1.5848,-1.5848,-1.5848,-1.5848,0,-1.558,-1.5594,-1.5615,-1.5642,-1.566,-1.5663,-1.5685,-1.5699,-1.5721,-1.5739,-1.5759,-1.5785,-1.5807,-1.5826,-1.5848,-1.586,-1.5862,-1.5865,-1.5864,-1.5866,-1.585,-1.5844,-1.5862,-1.5862,-1.5862,-1.5862,-1.5862,-1.5862,-1.5595,-1.5621,-1.5631,-1.5664,-1.5678,-1.5703,-1.5714,-1.573,-1.5745,-1.5775,-1.5793,-1.5805,-1.5823,-1.5847,-1.5867,-1.5871,-1.5879,-1.5881,-1.5886,-1.587,-1.5868,-1.5866,-1.5861,-1.5882,-1.5882,-1.5901,-1.5901,-1.5901]}]]